When you browse on this site, cookies collect data to enhance your experience and personalize the content and advertising you see.
Visit our Privacy Policy to learn more. By continuing to use the site, you agree to this use of cookies and data.
  • En Estados Unidos
  • Lista de países
  • Para 7 días
  • Temperatura del agua
  • Mapa Satelital
  • El tiempo en el mapa
  • Informadores
  • user-avatar
    Iniciar sesión

    Tiempo cada hora Satif

    Hoy, 13 Diciembre, Jueves

    Tiempo Temperatura Precipitaciones Viento Presión Humedad
    00:00 +6°C° 0 mm 2 mps 671 mmHg 68%
    01:00 +6°C° 0 mm 2 mps 671 mmHg 69%
    02:00 +6°C° 0 mm 2 mps 671 mmHg 69%
    03:00 +6°C° 0 mm 2 mps 670 mmHg 70%
    04:00 +5°C° 0 mm 2 mps 670 mmHg 70%
    05:00 +5°C° 0 mm 2 mps 670 mmHg 71%
    06:00 +5°C° 0 mm 2 mps 670 mmHg 72%
    07:00 +6°C° 0 mm 2 mps 670 mmHg 68%
    08:00 +8°C° 0 mm 3 mps 670 mmHg 64%
    09:00 +9°C° 0 mm 3 mps 670 mmHg 60%
    10:00 +10°C° 0 mm 4 mps 670 mmHg 54%
    11:00 +11°C° 0 mm 4 mps 670 mmHg 49%
    12:00 +12°C° 0 mm 5 mps 670 mmHg 43%
    13:00 +12°C° 0 mm 5 mps 669 mmHg 44%
    14:00 +12°C° 0 mm 5 mps 669 mmHg 45%
    15:00 +12°C° 0 mm 5 mps 668 mmHg 46%
    16:00 +10°C° 0.1 mm 5 mps 667 mmHg 50%
    17:00 +10°C° 0.1 mm 4 mps 667 mmHg 54%
    18:00 +9°C° 0.1 mm 3 mps 666 mmHg 58%
    19:00 +8°C° 0.2 mm 3 mps 666 mmHg 59%
    20:00 +7°C° 0.2 mm 4 mps 666 mmHg 60%
    21:00 +6°C° 0.2 mm 4 mps 665 mmHg 61%
    22:00 +6°C° 0.2 mm 4 mps 665 mmHg 64%
    23:00 +6°C° 0.2 mm 5 mps 665 mmHg 67%

    Mañana, 14 Diciembre, Viernes

    Tiempo Temperatura Precipitaciones Viento Presión Humedad
    00:00 +4°C° 0.2 mm 6 mps 665 mmHg 71%
    01:00 +4°C° 0.2 mm 6 mps 665 mmHg 72%
    02:00 +3°C° 0.2 mm 5 mps 664 mmHg 73%
    03:00 +4°C° 0.2 mm 4 mps 664 mmHg 74%
    04:00 +3°C° 0.2 mm 4 mps 663 mmHg 75%
    05:00 +2°C° 0.2 mm 5 mps 663 mmHg 77%
    06:00 +1°C° 0.2 mm 5 mps 662 mmHg 78%
    07:00 +2°C° 1.1 mm 5 mps 662 mmHg 79%
    08:00 +2°C° 1.1 mm 5 mps 662 mmHg 80%
    09:00 +2°C° 1.1 mm 5 mps 663 mmHg 80%
    10:00 +3°C° 0.3 mm 5 mps 663 mmHg 77%
    11:00 +4°C° 0.3 mm 6 mps 664 mmHg 73%
    12:00 +4°C° 0.3 mm 6 mps 664 mmHg 69%
    13:00 +5°C° 0.2 mm 6 mps 665 mmHg 68%
    14:00 +6°C° 0.2 mm 5 mps 665 mmHg 68%
    15:00 +6°C° 0.2 mm 5 mps 666 mmHg 67%
    16:00 +5°C° 2.8 mm 6 mps 667 mmHg 74%
    17:00 +4°C° 2.8 mm 7 mps 667 mmHg 80%
    18:00 +4°C° 2.8 mm 8 mps 668 mmHg 87%
    19:00 +3°C° 1.9 mm 9 mps 669 mmHg 88%
    20:00 +3°C° 1.9 mm 9 mps 669 mmHg 88%
    21:00 +3°C° 1.9 mm 10 mps 670 mmHg 89%
    22:00 +2°C° 0.2 mm 9 mps 671 mmHg 88%
    23:00 +2°C° 0.2 mm 8 mps 671 mmHg 87%

    Pasado mañana, 15 Diciembre, Sábado

    Tiempo Temperatura Precipitaciones Viento Presión Humedad
    00:00 +3°C° 0.2 mm 7 mps 671 mmHg 86%
    01:00 +3°C° 0.1 mm 7 mps 672 mmHg 86%
    02:00 +3°C° 0.1 mm 6 mps 672 mmHg 86%
    03:00 +3°C° 0.1 mm 6 mps 673 mmHg 86%
    04:00 +3°C° 0.1 mm 5 mps 673 mmHg 87%
    05:00 +3°C° 0.1 mm 5 mps 673 mmHg 87%
    06:00 +4°C° 0.1 mm 4 mps 674 mmHg 87%
    07:00 +4°C° 0 mm 4 mps 674 mmHg 84%
    08:00 +5°C° 0 mm 4 mps 675 mmHg 80%
    09:00 +5°C° 0 mm 3 mps 675 mmHg 77%
    10:00 +7°C° 0 mm 3 mps 675 mmHg 75%
    11:00 +7°C° 0 mm 3 mps 675 mmHg 73%
    12:00 +8°C° 0 mm 3 mps 675 mmHg 71%
    13:00 +8°C° 0 mm 3 mps 675 mmHg 71%
    14:00 +8°C° 0 mm 3 mps 675 mmHg 71%
    15:00 +8°C° 0 mm 3 mps 675 mmHg 71%
    16:00 +7°C° 0 mm 3 mps 675 mmHg 75%
    17:00 +6°C° 0 mm 2 mps 675 mmHg 79%
    18:00 +6°C° 0 mm 2 mps 675 mmHg 83%
    19:00 +5°C° 0 mm 2 mps 675 mmHg 84%
    20:00 +5°C° 0 mm 2 mps 675 mmHg 85%
    21:00 +5°C° 0 mm 1 mps 675 mmHg 86%
    22:00 +5°C° 0 mm 1 mps 675 mmHg 85%
    23:00 +5°C° 0 mm 1 mps 675 mmHg 84%

    16 Diciembre, Domingo

    Tiempo Temperatura Precipitaciones Viento Presión Humedad
    00:00 +5°C° 0 mm 1 mps 675 mmHg 84%
    01:00 +5°C° 0 mm 1 mps 675 mmHg 81%
    02:00 +5°C° 0 mm 1 mps 675 mmHg 79%
    03:00 +5°C° 0 mm 1 mps 674 mmHg 77%
    04:00 +5°C° 0 mm 1 mps 674 mmHg 74%
    05:00 +5°C° 0 mm 1 mps 674 mmHg 71%
    06:00 +5°C° 0 mm 1 mps 674 mmHg 68%
    07:00 +7°C° 0 mm 1 mps 675 mmHg 62%
    08:00 +7°C° 0 mm 2 mps 676 mmHg 56%
    09:00 +9°C° 0 mm 2 mps 676 mmHg 49%
    10:00 +12°C° 0 mm 2 mps 676 mmHg 47%
    11:00 +13°C° 0 mm 2 mps 676 mmHg 45%
    12:00 +14°C° 0 mm 2 mps 676 mmHg 43%
    13:00 +14°C° 0 mm 2 mps 676 mmHg 45%
    14:00 +15°C° 0 mm 2 mps 676 mmHg 46%
    15:00 +15°C° 0 mm 2 mps 676 mmHg 48%
    16:00 +13°C° 0 mm 2 mps 676 mmHg 52%
    17:00 +11°C° 0 mm 1 mps 675 mmHg 57%
    18:00 +10°C° 0 mm 1 mps 675 mmHg 62%
    19:00 +9°C° 0 mm 1 mps 675 mmHg 61%
    20:00 +8°C° 0 mm 2 mps 676 mmHg 61%
    21:00 +8°C° 0 mm 2 mps 676 mmHg 60%
    22:00 +8°C° 0 mm 2 mps 676 mmHg 60%
    23:00 +7°C° 0 mm 2 mps 676 mmHg 60%

    17 Diciembre, Lunes

    Tiempo Temperatura Precipitaciones Viento Presión Humedad
    00:00 +7°C° 0 mm 2 mps 675 mmHg 61%
    01:00 +7°C° 0 mm 2 mps 675 mmHg 61%
    02:00 +7°C° 0 mm 1 mps 675 mmHg 62%
    03:00 +7°C° 0 mm 1 mps 675 mmHg 63%
    04:00 +7°C° 0 mm 1 mps 675 mmHg 64%
    05:00 +6°C° 0 mm 1 mps 675 mmHg 65%
    06:00 +6°C° 0 mm 1 mps 675 mmHg 66%
    07:00 +8°C° 0 mm 1 mps 676 mmHg 61%
    08:00 +9°C° 0 mm 1 mps 676 mmHg 55%
    09:00 +11°C° 0 mm 1 mps 677 mmHg 50%
    10:00 +12°C° 0 mm 1 mps 677 mmHg 50%
    11:00 +13°C° 0 mm 2 mps 677 mmHg 49%
    12:00 +13°C° 0 mm 2 mps 677 mmHg 48%
    13:00 +12°C° 0 mm 3 mps 677 mmHg 52%
    14:00 +12°C° 0 mm 3 mps 677 mmHg 56%
    15:00 +12°C° 0 mm 3 mps 677 mmHg 61%
    16:00 +11°C° 0.1 mm 3 mps 677 mmHg 68%
    17:00 +10°C° 0.1 mm 3 mps 677 mmHg 76%
    18:00 +8°C° 0.1 mm 2 mps 678 mmHg 83%
    19:00 +8°C° 0 mm 2 mps 678 mmHg 86%
    20:00 +7°C° 0 mm 2 mps 678 mmHg 89%
    21:00 +8°C° 0 mm 1 mps 678 mmHg 91%
    22:00 +7°C° 0 mm 1 mps 678 mmHg 92%
    23:00 +7°C° 0 mm 1 mps 678 mmHg 93%

    18 Diciembre, Martes

    Tiempo Temperatura Precipitaciones Viento Presión Humedad
    00:00 +6°C° 0 mm 1 mps 678 mmHg 94%
    01:00 +6°C° 0 mm 1 mps 678 mmHg 94%
    02:00 +6°C° 0 mm 1 mps 678 mmHg 95%
    03:00 +5°C° 0 mm 1 mps 678 mmHg 95%
    04:00 +5°C° 0 mm 1 mps 678 mmHg 94%
    05:00 +5°C° 0 mm 1 mps 678 mmHg 93%
    06:00 +4°C° 0 mm 1 mps 678 mmHg 92%
    07:00 +6°C° 0 mm 1 mps 678 mmHg 85%
    08:00 +7°C° 0 mm 1 mps 679 mmHg 77%
    09:00 +8°C° 0 mm 1 mps 680 mmHg 69%
    10:00 +9°C° 0 mm 2 mps 680 mmHg 61%
    11:00 +10°C° 0 mm 2 mps 679 mmHg 52%
    12:00 +13°C° 0 mm 2 mps 679 mmHg 44%
    13:00 +13°C° 0 mm 2 mps 679 mmHg 45%
    14:00 +13°C° 0 mm 2 mps 679 mmHg 46%
    15:00 +12°C° 0 mm 3 mps 679 mmHg 46%
    16:00 +11°C° 0 mm 3 mps 678 mmHg 53%
    17:00 +9°C° 0 mm 3 mps 678 mmHg 60%
    18:00 +8°C° 0 mm 3 mps 678 mmHg 67%
    19:00 +8°C° 0 mm 3 mps 678 mmHg 70%
    20:00 +7°C° 0 mm 3 mps 678 mmHg 73%
    21:00 +7°C° 0 mm 3 mps 678 mmHg 76%
    22:00 +7°C° 0 mm 3 mps 678 mmHg 77%
    23:00 +5°C° 0 mm 3 mps 677 mmHg 79%
    Mostrar más